CDT,Max TemperatureF,Mean TemperatureF,Min TemperatureF,Max Dew PointF,MeanDew PointF,Min DewpointF,Max Humidity, Mean Humidity, Min Humidity, Max Sea Level PressureIn, Mean Sea Level PressureIn, Min Sea Level PressureIn, Max VisibilityMiles, Mean VisibilityMiles, Min VisibilityMiles, Max Wind SpeedMPH, Mean Wind SpeedMPH, Max Gust SpeedMPH,PrecipitationIn, CloudCover, Events, WindDirDegrees
2013-10-1,95,78,61,56,42,29,67,39,10,29.77,29.72,29.68,10,10,10,23,12,28,0.00,1,,191
2013-10-2,93,78,62,59,48,32,78,45,12,29.82,29.76,29.68,10,10,10,17,11,24,0.00,0,,177
2013-10-3,94,80,65,62,53,42,93,55,17,29.78,29.70,29.61,10,10,8,25,15,32,0.00,2,,205
2013-10-4,93,77,60,61,47,23,76,43,9,29.82,29.70,29.65,10,10,9,28,16,38,0.00,2,,213
2013-10-5,70,57,44,39,27,23,49,35,20,30.16,30.05,29.88,10,10,7,25,12,33,0.00,1,,15
2013-10-6,80,59,37,27,22,14,64,36,8,30.22,30.14,30.06,10,9,6,17,7,30,0.00,0,,319
2013-10-7,82,62,42,31,27,23,57,35,12,30.18,30.09,30.02,10,10,10,13,6,25,0.00,0,,248
2013-10-8,85,67,48,34,30,25,52,32,12,30.00,29.92,29.83,10,10,10,24,11,32,0.00,3,,174
2013-10-9,84,67,49,49,40,34,61,42,23,29.89,29.85,29.78,10,10,10,22,12,28,0.00,3,,156
2013-10-10,85,69,53,54,50,48,83,57,31,29.86,29.77,29.65,10,10,10,29,16,40,0.00,0,,163
2013-10-11,81,64,47,55,34,25,73,44,14,29.86,29.79,29.70,10,10,10,25,13,33,0.00,0,,257
2013-10-12,81,63,45,42,33,25,51,35,18,30.07,29.99,29.86,10,10,10,14,8,20,0.00,1,,23
2013-10-13,63,59,54,61,55,43,100,77,53,30.26,30.14,30.05,10,7,1,24,12,32,1.11,7,Rain-Thunderstorm,93
2013-10-14,80,72,63,64,60,51,100,70,39,30.11,29.95,29.76,10,9,2,26,13,30,0.00,8,,200
2013-10-15,68,58,48,57,41,36,84,68,51,30.10,30.01,29.85,10,10,10,23,13,30,0.00,7,,36
2013-10-16,56,50,44,41,37,33,76,60,43,30.16,30.10,30.04,10,10,10,16,6,21,0.00,6,,91
2013-10-17,69,55,41,53,47,40,96,72,48,30.07,29.99,29.88,10,10,6,20,9,24,0.00,1,,209
2013-10-18,66,51,35,55,45,32,93,65,37,30.19,29.96,29.82,10,10,8,30,14,39,0.00,4,,337
2013-10-19,65,49,32,35,28,20,92,56,20,30.25,30.13,29.99,10,10,10,17,10,24,0.00,0,,241
2013-10-20,81,61,40,39,30,15,79,44,9,29.96,29.82,29.68,10,10,10,23,11,31,0.00,0,,231
2013-10-21,66,56,45,38,36,34,71,50,29,30.15,30.01,29.81,10,10,10,25,12,32,0.00,1,,35
2013-10-22,76,57,37,39,34,28,85,52,19,30.21,30.12,30.04,10,10,10,16,8,22,0.00,0,,242
2013-10-23,78,59,40,35,30,22,70,41,12,30.13,30.06,29.99,10,10,10,22,10,26,0.00,0,,238
2013-10-24,72,58,43,43,38,34,71,51,31,30.22,30.13,30.03,10,10,10,18,10,24,0.00,2,,91
2013-10-25,63,52,41,49,41,34,79,67,54,30.39,30.24,30.14,10,10,10,18,8,24,T,6,Rain,119
2013-10-26,75,60,45,51,46,39,89,61,33,30.18,30.09,30.01,10,10,9,20,9,26,0.00,3,,304
2013-10-27,71,53,35,43,34,28,89,55,20,30.16,30.05,29.92,10,10,10,15,8,17,0.00,1,,242
2013-10-28,79,65,50,61,54,43,100,73,45,30.02,29.90,29.77,10,8,0,25,15,31,0.00,6,Fog,176
2013-10-29,77,70,63,63,60,57,93,74,54,30.04,29.89,29.82,10,10,7,22,14,28,0.00,7,,188
2013-10-30,76,68,60,63,55,38,93,61,29,29.96,29.79,29.67,10,10,7,24,16,37,0.04,8,Rain-Thunderstorm,202
2013-10-31,69,58,46,54,29,19,78,47,15,29.87,29.78,29.67,10,10,10,31,14,44,0.00,1,,274